User: anonymous   Login
Location: Cisewo
(53.3833°N, 14.9000°E)
Time: 20:00:54
(UTC+00:00)
Language:

CSL-04 DEB - Orbit

View from above orbital plane
View from above orbital plane
View from above satellite
View from above satellite

Ground track
Ground track

The orbit data is extracted from the following two-line orbital elements,

1 26231U 99057DV  22021.57071701  .00001536  00000-0  12873-3 0  9998
2 26231  98.7240 254.8384 0041965 122.8204 296.5096 14.99573832184780
Epoch (UTC): 21 January 2022 13:41:49
Eccentricity: 0.0041965
inclination: 98.7240°
perigee height: 539 km
apogee height: 597 km
right ascension of ascending node: 254.8384°
argument of perigee: 122.8204°
revolutions per day: 14.99573832
mean anomaly at epoch: 296.5096°
orbit number at epoch: 18478

The dashed part of the orbit path shows where the satellite is in the earth's shadow,  

DLR